Weather History for KMDH - October, 2012

Change the Weather History Date:

Sunday, October 21, 2012

  Actual Average Record
Temperature  
Mean Temperature 60 °F -  
Max Temperature 77 °F 66 °F 89 °F (1963)
Min Temperature 46 °F 39 °F 18 °F (1952)
Degree Days  
Heating Degree Days 4    
Growing Degree Days 10 (Base 50)    
Moisture  
Dew Point 54 °F    
Average Humidity 67    
Maximum Humidity 89    
Minimum Humidity 47    
Precipitation  
Precipitation 0.00 in - - ()
Sea Level Pressure  
Sea Level Pressure 29.97 in    
Wind  
Wind Speed 8 mph (South)    
Max Wind Speed 17 mph    
Max Gust Speed 26 mph    
Visibility 10 miles    
Events      
Averages and records for this station are not official NWS values.
T = Trace of Precipitation, MM = Missing Value Source: NWS Daily Summary

Daily Weather History Graph

Daily Weather History Graph

Search for Another Location

Airport or City:

Trip Planner

Search our weather history database for the weather conditions in past years. The results will help you decide how hot, cold, wet, or windy it might be!

Date:

Astronomy

Oct. 21, 2012 Rise Set
Actual Time 7:11 AM CDT 6:10 PM CDT
Civil Twilight 6:44 AM CDT 6:37 PM CDT
Nautical Twilight 6:14 AM CDT 7:08 PM CDT
Astronomical Twilight 5:43 AM CDT 7:38 PM CDT
Moon 1:30 PM CDT (10/21) No Moon Set
Length of Visible Light 11h 52m
Length of Day
10h 59m
Waxing Crescent, 45% of the Moon is Illuminated
Oct 21
Waxing Crescent
Oct 21
First Quarter
Oct 29
Full
Nov 6
Last Quarter
Nov 13
New

Hourly Weather History & Observations

Time (CDT) Temp. Windchill Dew Point Humidity Pressure Visibility Wind Dir Wind Speed Gust Speed Precip Events Conditions
12:52 AM 48.0 °F - 44.1 °F 86% 29.95 in 10.0 mi SSE 4.6 mph - N/A   Clear
2:52 AM 46.0 °F 43.9 °F 43.0 °F 89% 29.96 in 10.0 mi ESE 4.6 mph - N/A   Clear
3:52 AM 48.0 °F - 44.1 °F 86% 29.96 in 10.0 mi ESE 4.6 mph - N/A   Clear
5:52 AM 46.0 °F 43.9 °F 43.0 °F 89% 29.97 in 10.0 mi SE 4.6 mph - N/A   Clear
6:52 AM 50.0 °F - 44.1 °F 80% 29.97 in 10.0 mi SSE 4.6 mph - N/A   Clear
8:52 AM 57.9 °F - 46.9 °F 67% 29.99 in 10.0 mi South 8.1 mph 26.5 mph N/A   Clear
10:52 AM 66.9 °F - 48.0 °F 51% 30.00 in 10.0 mi South 11.5 mph - N/A   Clear
11:52 AM 71.1 °F - 50.0 °F 47% 30.00 in 10.0 mi South 8.1 mph - N/A   Clear
12:52 PM 73.9 °F - 54.0 °F 50% 29.98 in 10.0 mi SSE 9.2 mph - N/A   Clear
1:52 PM 75.9 °F - 59.0 °F 56% 29.96 in 10.0 mi South 13.8 mph - N/A   Clear
2:52 PM 75.0 °F - 61.0 °F 62% 29.95 in 10.0 mi South 13.8 mph - N/A   Mostly Cloudy
3:25 PM 73.4 °F - 60.8 °F 65% 29.95 in 10.0 mi South 17.3 mph - N/A   Overcast
3:52 PM 75.0 °F - 61.0 °F 62% 29.94 in 10.0 mi South 17.3 mph 21.9 mph N/A   Overcast
4:15 PM 73.4 °F - 59.0 °F 61% 29.94 in 10.0 mi South 11.5 mph - N/A   Scattered Clouds
4:52 PM 75.9 °F - 60.1 °F 58% 29.94 in 10.0 mi South 13.8 mph 19.6 mph N/A   Mostly Cloudy
5:52 PM 72.0 °F - 60.1 °F 66% 29.95 in 10.0 mi South 10.4 mph 20.7 mph N/A   Overcast
6:52 PM 71.1 °F - 60.1 °F 68% 29.96 in 10.0 mi South 8.1 mph - N/A   Overcast
7:52 PM 71.1 °F - 60.1 °F 68% 29.97 in 10.0 mi SSE 5.8 mph - N/A   Overcast
8:52 PM 71.1 °F - 59.0 °F 66% 29.98 in 10.0 mi South 9.2 mph - N/A   Overcast
10:52 PM 66.0 °F - 55.0 °F 68% 29.98 in 10.0 mi South 10.4 mph - N/A   Clear
11:52 PM 66.9 °F - 51.1 °F 57% 29.98 in 10.0 mi South 9.2 mph - N/A   Clear